Flag for Germany Weather past 2 weeks in Burgdorf, Lower Saxony, Germany

Now
54 °F

Partly sunny.


Feels Like: 53 °F
Forecast: 49 / 62 °F
Wind: 3 mph from Southwest

Location: Celle Airport

Current Time: May 27, 2015 at 10:24:55 PM

Latest Report: May 27, 2015 at 9:20 PM


Visibility: N/A

Pressure: 30.09 "Hg

Humidity: 63%

Dew point: 41 °F

Location of BurgdorfLocation

Historic Weather in Burgdorf — Graph

°F

Burgdorf temperature yesterday

Maximum temperature yesterday: 57 °F (at 3:20 PM)
Minimum temperature yesterday: 46 °F (at 12:20 AM)
Average temperature yesterday: 51 °F

Past Weeks' High & Low Weather Summary

 TemperatureHumidityPressure
High68 °F (May 18, 5:00 PM)100% (May 24, 5:20 AM)30.33 "Hg (May 24, 5:20 AM)
Low36 °F (May 15, 5:20 AM)32% (May 20, 4:20 PM)29.59 "Hg (May 18, 9:20 PM)
Average53 °F68%30.04 "Hg
* Reported May 12 8:20 PM — May 27 8:20 PM, Burgdorf, Weather by CustomWeather, © 2015

Note: Actual official high and low records may vary slightly from our data, if they occured in-between our weather recording intervals... More about our weather records

Advertising

Burgdorf weather history for previous 24 hours

 ConditionsComfort  
Time TempWeatherWind HumidityBarometerVisibility
8:20 PM
Wed, May 27
57 °FPartly sunny.8 mph55%30.12 "HgN/A
7:20 PM59 °FPartly sunny.8 mph48%30.12 "HgN/A
6:20 PM59 °FPartly sunny.9 mph48%30.15 "HgN/A
5:20 PM59 °FPartly sunny.10 mph51%30.15 "HgN/A
4:20 PM57 °FPartly sunny.9 mph51%30.15 "HgN/A
3:20 PM57 °FPartly sunny.10 mph48%30.15 "HgN/A
2:20 PM57 °FPartly sunny.7 mph48%30.18 "HgN/A
1:20 PM55 °FPartly sunny.8 mph51%30.18 "HgN/A
12:20 PM55 °FPartly sunny.10 mph55%30.18 "HgN/A
11:20 AM54 °FPartly sunny.8 mph63%30.18 "HgN/A
10:20 AM52 °FBroken clouds.9 mph62%30.18 "HgN/A
9:20 AM52 °FPartly sunny.7 mph72%30.18 "HgN/A
8:20 AM48 °FPartly sunny.7 mph82%30.18 "HgN/A
7:20 AM46 °FPartly sunny.7 mph87%30.18 "HgN/A
6:20 AM45 °FPartly sunny.7 mph87%30.18 "HgN/A
5:20 AM43 °FPassing clouds.3 mph93%30.18 "HgN/A
4:20 AM43 °FPassing clouds.6 mph93%30.18 "HgN/A
3:20 AM45 °FPassing clouds.6 mph87%30.18 "HgN/A
2:20 AM45 °FPassing clouds.6 mph87%30.18 "HgN/A
1:20 AM45 °FPassing clouds.5 mph81%30.18 "HgN/A
12:20 AM45 °FPassing clouds.5 mph81%30.15 "HgN/A
11:20 PM
Tue, May 26
46 °FPassing clouds.5 mph76%30.15 "HgN/A
10:20 PM48 °FPassing clouds.5 mph76%30.15 "HgN/A
Weather by CustomWeather, © 2015

See weather overviewHow to use our weather pages